Time,TemperatureF,DewpointF,PressureIn,WindDirection,WindDirectionDegrees,WindSpeedMPH,WindSpeedGustMPH,Humidity,HourlyPrecipIn,Conditions,Clouds,dailyrainin,SoftwareType,DateUTC
2015-02-01 00:04:00,60.8,59.9,29.91,SE,145,5.0,7.0,97,0.00,,,0.16,HR-IXPWINDi_r2_v1.1.,2015-02-01 06:04:00,
2015-02-01 00:09:00,60.7,59.8,29.91,SE,145,2.0,8.0,97,0.00,,,0.00,HR-IXPWINDi_r2_v1.1.,2015-02-01 06:09:00,
2015-02-01 00:14:00,60.7,59.8,29.91,SE,145,4.0,8.0,97,0.00,,,0.00,HR-IXPWINDi_r2_v1.1.,2015-02-01 06:14:00,
2015-02-01 00:19:00,60.8,59.9,29.91,SE,145,4.0,6.0,97,0.00,,,0.00,HR-IXPWINDi_r2_v1.1.,2015-02-01 06:19:00,
2015-02-01 00:24:00,60.8,59.9,29.91,SE,145,4.0,6.0,97,0.00,,,0.00,HR-IXPWINDi_r2_v1.1.,2015-02-01 06:24:00,
2015-02-01 00:29:00,60.9,60.0,29.91,SE,145,4.0,7.0,97,0.00,,,0.00,HR-IXPWINDi_r2_v1.1.,2015-02-01 06:29:00,
2015-02-01 00:34:00,60.9,60.0,29.91,SE,145,2.0,7.0,97,0.00,,,0.00,HR-IXPWINDi_r2_v1.1.,2015-02-01 06:34:00,
2015-02-01 00:39:00,60.9,60.0,29.91,SE,145,0.0,5.0,97,0.00,,,0.00,HR-IXPWINDi_r2_v1.1.,2015-02-01 06:39:00,
2015-02-01 00:44:00,60.9,60.0,29.91,SE,145,1.0,5.0,97,0.00,,,0.00,HR-IXPWINDi_r2_v1.1.,2015-02-01 06:44:00,
2015-02-01 00:49:00,61.0,60.1,29.91,SE,145,2.0,5.0,97,0.00,,,0.00,HR-IXPWINDi_r2_v1.1.,2015-02-01 06:49:00,
2015-02-01 00:54:00,61.0,60.1,29.91,SE,145,2.0,6.0,97,0.00,,,0.00,HR-IXPWINDi_r2_v1.1.,2015-02-01 06:54:00,
2015-02-01 00:59:00,61.0,60.1,29.91,SE,145,0.0,6.0,97,0.00,,,0.00,HR-IXPWINDi_r2_v1.1.,2015-02-01 06:59:00,
2015-02-01 01:04:00,61.0,60.1,29.91,SE,145,0.0,5.0,97,0.00,,,0.00,HR-IXPWINDi_r2_v1.1.,2015-02-01 07:04:00,
2015-02-01 01:09:00,61.0,60.1,29.91,SE,145,0.0,1.0,97,0.00,,,0.00,HR-IXPWINDi_r2_v1.1.,2015-02-01 07:09:00,
2015-02-01 01:14:00,61.0,60.1,29.91,SE,145,0.0,1.0,97,0.00,,,0.00,HR-IXPWINDi_r2_v1.1.,2015-02-01 07:14:00,
2015-02-01 01:19:00,61.0,60.1,29.91,SE,145,0.0,4.0,97,0.00,,,0.00,HR-IXPWINDi_r2_v1.1.,2015-02-01 07:19:00,
2015-02-01 01:24:00,61.0,60.1,29.90,SE,145,1.0,4.0,97,0.00,,,0.00,HR-IXPWINDi_r2_v1.1.,2015-02-01 07:24:00,
2015-02-01 01:29:00,61.0,60.1,29.90,SE,145,2.0,4.0,97,0.00,,,0.00,HR-IXPWINDi_r2_v1.1.,2015-02-01 07:29:00,
2015-02-01 01:34:00,61.0,60.1,29.90,SE,145,0.0,4.0,97,0.00,,,0.00,HR-IXPWINDi_r2_v1.1.,2015-02-01 07:34:00,
2015-02-01 01:39:00,61.0,60.1,29.91,SE,145,1.0,4.0,97,0.00,,,0.00,HR-IXPWINDi_r2_v1.1.,2015-02-01 07:39:00,
2015-02-01 01:44:00,61.0,60.1,29.90,SE,145,0.0,4.0,97,0.00,,,0.00,HR-IXPWINDi_r2_v1.1.,2015-02-01 07:44:00,
2015-02-01 01:49:00,61.0,60.1,29.90,SE,145,0.0,4.0,97,0.00,,,0.00,HR-IXPWINDi_r2_v1.1.,2015-02-01 07:49:00,
2015-02-01 01:54:00,61.0,60.1,29.90,SE,145,0.0,1.0,97,0.00,,,0.00,HR-IXPWINDi_r2_v1.1.,2015-02-01 07:54:00,
2015-02-01 01:59:00,61.1,60.2,29.90,SE,145,0.0,2.0,97,0.00,,,0.00,HR-IXPWINDi_r2_v1.1.,2015-02-01 07:59:00,
2015-02-01 02:04:00,61.0,60.1,29.89,SE,145,0.0,2.0,97,0.00,,,0.00,HR-IXPWINDi_r2_v1.1.,2015-02-01 08:04:00,
2015-02-01 02:09:00,61.0,60.1,29.89,SE,145,0.0,4.0,97,0.00,,,0.00,HR-IXPWINDi_r2_v1.1.,2015-02-01 08:09:00,
2015-02-01 02:14:00,61.0,60.1,29.90,SE,145,0.0,4.0,97,0.00,,,0.00,HR-IXPWINDi_r2_v1.1.,2015-02-01 08:14:00,
2015-02-01 02:19:00,61.0,60.1,29.90,SE,145,0.0,0.0,97,0.00,,,0.00,HR-IXPWINDi_r2_v1.1.,2015-02-01 08:19:00,
2015-02-01 02:24:00,61.1,60.2,29.90,SE,145,0.0,2.0,97,0.00,,,0.00,HR-IXPWINDi_r2_v1.1.,2015-02-01 08:24:00,
2015-02-01 02:30:00,61.1,60.2,29.90,SE,145,0.0,2.0,97,0.00,,,0.00,HR-IXPWINDi_r2_v1.1.,2015-02-01 08:30:00,
2015-02-01 02:35:00,61.2,60.3,29.90,SE,145,0.0,2.0,97,0.00,,,0.00,HR-IXPWINDi_r2_v1.1.,2015-02-01 08:35:00,
2015-02-01 02:40:00,61.3,60.4,29.90,SE,145,0.0,2.0,97,0.00,,,0.00,HR-IXPWINDi_r2_v1.1.,2015-02-01 08:40:00,
2015-02-01 02:45:00,61.3,60.4,29.90,SE,145,0.0,1.0,97,0.00,,,0.00,HR-IXPWINDi_r2_v1.1.,2015-02-01 08:45:00,
2015-02-01 02:50:00,61.4,60.5,29.90,SE,145,0.0,2.0,97,0.00,,,0.00,HR-IXPWINDi_r2_v1.1.,2015-02-01 08:50:00,
2015-02-01 02:55:00,61.4,60.5,29.90,SE,145,0.0,4.0,97,0.00,,,0.00,HR-IXPWINDi_r2_v1.1.,2015-02-01 08:55:00,
2015-02-01 03:00:00,61.4,60.5,29.90,SE,145,0.0,4.0,97,0.00,,,0.00,HR-IXPWINDi_r2_v1.1.,2015-02-01 09:00:00,
2015-02-01 03:05:00,61.5,60.6,29.90,SE,145,0.0,4.0,97,0.00,,,0.00,HR-IXPWINDi_r2_v1.1.,2015-02-01 09:05:00,
2015-02-01 03:10:00,61.5,60.6,29.90,SE,145,1.0,4.0,97,0.00,,,0.00,HR-IXPWINDi_r2_v1.1.,2015-02-01 09:10:00,
2015-02-01 03:15:00,61.6,60.7,29.90,SE,145,2.0,5.0,97,0.00,,,0.00,HR-IXPWINDi_r2_v1.1.,2015-02-01 09:15:00,
2015-02-01 03:20:00,61.7,60.8,29.90,SE,145,2.0,5.0,97,0.00,,,0.00,HR-IXPWINDi_r2_v1.1.,2015-02-01 09:20:00,
2015-02-01 03:25:00,61.8,60.9,29.90,SE,145,4.0,5.0,97,0.00,,,0.00,HR-IXPWINDi_r2_v1.1.,2015-02-01 09:25:00,
2015-02-01 03:30:00,61.9,61.0,29.89,SE,145,1.0,5.0,97,0.00,,,0.00,HR-IXPWINDi_r2_v1.1.,2015-02-01 09:30:00,
2015-02-01 03:35:00,62.0,61.1,29.89,SE,145,0.0,5.0,97,0.00,,,0.00,HR-IXPWINDi_r2_v1.1.,2015-02-01 09:35:00,
2015-02-01 03:40:00,62.0,61.1,29.88,SE,145,0.0,4.0,97,0.00,,,0.00,HR-IXPWINDi_r2_v1.1.,2015-02-01 09:40:00,
2015-02-01 03:45:00,62.0,61.1,29.88,SE,145,2.0,4.0,97,0.00,,,0.00,HR-IXPWINDi_r2_v1.1.,2015-02-01 09:45:00,
2015-02-01 03:50:00,61.9,61.0,29.88,SE,145,4.0,4.0,97,0.00,,,0.00,HR-IXPWINDi_r2_v1.1.,2015-02-01 09:50:00,
2015-02-01 03:55:00,61.9,61.0,29.88,SE,145,4.0,5.0,97,0.00,,,0.00,HR-IXPWINDi_r2_v1.1.,2015-02-01 09:55:00,
2015-02-01 04:00:00,62.0,61.1,29.88,SE,145,7.0,7.0,97,0.00,,,0.00,HR-IXPWINDi_r2_v1.1.,2015-02-01 10:00:00,
2015-02-01 04:05:00,61.9,61.0,29.88,SE,146,0.0,8.0,97,0.00,,,0.00,HR-IXPWINDi_r2_v1.1.,2015-02-01 10:05:00,
2015-02-01 04:10:00,61.9,61.0,29.88,SE,146,1.0,8.0,97,0.00,,,0.00,HR-IXPWINDi_r2_v1.1.,2015-02-01 10:10:00,
2015-02-01 04:15:00,61.9,61.0,29.88,SE,146,0.0,5.0,97,0.00,,,0.00,HR-IXPWINDi_r2_v1.1.,2015-02-01 10:15:00,
2015-02-01 04:20:00,61.9,61.0,29.88,SE,145,0.0,5.0,97,0.00,,,0.00,HR-IXPWINDi_r2_v1.1.,2015-02-01 10:20:00,
2015-02-01 04:25:00,61.9,61.0,29.88,SE,146,0.0,5.0,97,0.00,,,0.00,HR-IXPWINDi_r2_v1.1.,2015-02-01 10:25:00,
2015-02-01 04:30:00,61.9,61.0,29.88,SE,146,0.0,5.0,97,0.00,,,0.00,HR-IXPWINDi_r2_v1.1.,2015-02-01 10:30:00,
2015-02-01 04:35:00,61.9,61.0,29.88,SE,146,0.0,4.0,97,0.00,,,0.00,HR-IXPWINDi_r2_v1.1.,2015-02-01 10:35:00,
2015-02-01 04:40:00,61.9,61.0,29.88,SE,146,0.0,4.0,97,0.00,,,0.00,HR-IXPWINDi_r2_v1.1.,2015-02-01 10:40:00,
2015-02-01 04:45:00,61.9,61.0,29.88,SE,146,1.0,4.0,97,0.00,,,0.00,HR-IXPWINDi_r2_v1.1.,2015-02-01 10:45:00,
2015-02-01 04:50:00,61.9,61.0,29.88,SE,146,4.0,4.0,97,0.00,,,0.00,HR-IXPWINDi_r2_v1.1.,2015-02-01 10:50:00,
2015-02-01 04:55:00,61.9,61.0,29.88,SE,146,2.0,5.0,97,0.00,,,0.00,HR-IXPWINDi_r2_v1.1.,2015-02-01 10:55:00,
2015-02-01 05:00:00,61.9,61.0,29.88,SE,146,0.0,6.0,97,0.00,,,0.00,HR-IXPWINDi_r2_v1.1.,2015-02-01 11:00:00,
2015-02-01 05:05:00,61.9,61.3,29.88,SE,146,1.0,6.0,98,0.00,,,0.00,HR-IXPWINDi_r2_v1.1.,2015-02-01 11:05:00,
2015-02-01 05:10:00,61.9,61.3,29.88,South,173,4.0,6.0,98,0.00,,,0.00,HR-IXPWINDi_r2_v1.1.,2015-02-01 11:10:00,
2015-02-01 05:15:00,61.9,61.3,29.88,SSE,167,4.0,6.0,98,0.00,,,0.00,HR-IXPWINDi_r2_v1.1.,2015-02-01 11:15:00,
2015-02-01 05:20:00,61.8,61.2,29.88,SSE,167,0.0,6.0,98,0.00,,,0.00,HR-IXPWINDi_r2_v1.1.,2015-02-01 11:20:00,
2015-02-01 05:25:00,61.8,61.2,29.88,SSE,168,1.0,6.0,98,0.00,,,0.00,HR-IXPWINDi_r2_v1.1.,2015-02-01 11:25:00,
2015-02-01 05:30:00,61.8,61.2,29.88,SSW,196,0.0,8.0,98,0.00,,,0.00,HR-IXPWINDi_r2_v1.1.,2015-02-01 11:30:00,
2015-02-01 05:35:00,61.8,61.2,29.88,SSW,202,1.0,8.0,98,0.00,,,0.00,HR-IXPWINDi_r2_v1.1.,2015-02-01 11:35:00,
2015-02-01 05:40:00,61.8,61.2,29.88,SSW,204,0.0,5.0,98,0.00,,,0.00,HR-IXPWINDi_r2_v1.1.,2015-02-01 11:40:00,
2015-02-01 05:45:00,61.8,61.2,29.87,South,181,0.0,5.0,98,0.00,,,0.00,HR-IXPWINDi_r2_v1.1.,2015-02-01 11:45:00,
2015-02-01 05:50:00,61.8,61.2,29.87,South,180,0.0,3.0,98,0.00,,,0.00,HR-IXPWINDi_r2_v1.1.,2015-02-01 11:50:00,
2015-02-01 05:55:00,61.7,61.1,29.87,SSE,164,4.0,5.0,98,0.00,,,0.00,HR-IXPWINDi_r2_v1.1.,2015-02-01 11:55:00,
2015-02-01 06:00:00,61.6,61.0,29.87,SSE,164,0.0,5.0,98,0.00,,,0.00,HR-IXPWINDi_r2_v1.1.,2015-02-01 12:00:00,
2015-02-01 06:05:00,61.4,60.8,29.87,SSE,157,2.0,5.0,98,0.00,,,0.00,HR-IXPWINDi_r2_v1.1.,2015-02-01 12:05:00,
2015-02-01 06:10:00,61.4,60.8,29.87,SSE,159,0.0,6.0,98,0.00,,,0.00,HR-IXPWINDi_r2_v1.1.,2015-02-01 12:10:00,
2015-02-01 06:15:00,61.4,60.8,29.87,SSE,160,0.0,6.0,98,0.00,,,0.00,HR-IXPWINDi_r2_v1.1.,2015-02-01 12:15:00,
2015-02-01 06:20:00,61.3,60.7,29.87,SSE,160,0.0,6.0,98,0.00,,,0.00,HR-IXPWINDi_r2_v1.1.,2015-02-01 12:20:00,
2015-02-01 06:25:00,61.2,60.6,29.87,SSE,160,0.0,2.0,98,0.00,,,0.00,HR-IXPWINDi_r2_v1.1.,2015-02-01 12:25:00,
2015-02-01 06:30:00,61.1,60.5,29.87,SSE,161,0.0,5.0,98,0.00,,,0.00,HR-IXPWINDi_r2_v1.1.,2015-02-01 12:30:00,
2015-02-01 06:35:00,61.0,60.4,29.88,SSE,161,2.0,5.0,98,0.00,,,0.00,HR-IXPWINDi_r2_v1.1.,2015-02-01 12:35:00,
2015-02-01 06:40:00,60.9,60.3,29.88,SSE,161,0.0,5.0,98,0.00,,,0.00,HR-IXPWINDi_r2_v1.1.,2015-02-01 12:40:00,
2015-02-01 06:45:00,60.8,60.2,29.88,SSE,161,0.0,5.0,98,0.00,,,0.00,HR-IXPWINDi_r2_v1.1.,2015-02-01 12:45:00,
2015-02-01 06:50:00,60.7,60.1,29.89,SSE,161,0.0,0.0,98,0.00,,,0.00,HR-IXPWINDi_r2_v1.1.,2015-02-01 12:50:00,
2015-02-01 06:55:00,60.7,60.1,29.89,SSE,161,0.0,6.0,98,0.00,,,0.00,HR-IXPWINDi_r2_v1.1.,2015-02-01 12:55:00,
2015-02-01 07:00:00,60.8,60.2,29.89,SSE,161,0.0,6.0,98,0.00,,,0.00,HR-IXPWINDi_r2_v1.1.,2015-02-01 13:00:00,